Location: Gisborne
(38.6530°S, 178.0040°E)
Time: 04:39:37
(UTC+13:00)

Cosmos 1340 Rocket - Pass Details

Date: 24 January 2019
Orbit: 529 x 560 km, 81.2° (Epoch: 17 February)

Event Time Altitude Azimuth Distance (km) Brightness Sun altitude
Exits shadow 23:51:18 36° 199° (SSW) 877 4.3 -28.5°
Drops below altitude 10° 23:53:53 10° 180° (S) 1,825 6.3 -28.7°
Sets 23:56:07 0° 175° (S) 2,731 7.3 -28.9°
